User: anonymous   Login
Location: Kuppenheim
(48.8299°N, 8.2568°E)
Time: 11:38:22
(UTC+00:00)
Language:

Cosmos 1937 Rocket - Orbit

View from above orbital plane
View from above orbital plane
View from above satellite
View from above satellite

Ground track
Ground track

The orbit data is extracted from the following two-line orbital elements,

1 19039U 88029B   21259.45822321  .00000057  00000-0  26963-4 0  9997
2 19039  74.0485 320.5860 0022500 109.3791 250.9798 14.38526065753718
Epoch (UTC): 16 September 2021 10:59:50
Eccentricity: 0.0022500
inclination: 74.0485°
perigee height: 747 km
apogee height: 779 km
right ascension of ascending node: 320.5860°
argument of perigee: 109.3791°
revolutions per day: 14.38526065
mean anomaly at epoch: 250.9798°
orbit number at epoch: 75371

The dashed part of the orbit path shows where the satellite is in the earth's shadow,  

DLR